Regional Weather Roundup
Issued by NWS

Home | Current Version | Previous Version | Graphics & Text | Print | Product List | Glossary On
Versions: 1 2 3 4 5 6 7 8 9 10 11 12 13 14 15 16 17 18 19 20 21 22 23 24 25 26 27
000
ASUS45 KBOU 201307
RWRCO

WEATHER ROUNDUP FOR COLORADO
NATIONAL WEATHER SERVICE DENVER/BOULDER CO
700 AM MDT WED SEP 20 2017

NOTE: "FAIR" INDICATES FEW OR NO CLOUDS BELOW 12000 FEET WITH NO
SIGNIFICANT WEATHER AND/OR OBSTRUCTIONS TO VISIBILITY.

COZ001>005-013-030-031-201400-
...NORTHWEST COLORADO...

CITY           SKY/WX    TMP DP  RH WIND       PRES   REMARKS
CRAIG          CLOUDY    41  35  79 E6        30.04S
HAYDEN         CLOUDY    37  34  89 E14       30.06S
MEEKER         CLOUDY    40  38  93 CALM      30.03S
RABBIT EARS PA PTSUNNY   32  32 100 SW12G17   30.14R WCI  23
STEAMBOAT SPGS CLOUDY    34  34  99 CALM      30.07R
WALDEN         CLOUDY    34  32  93 SE5       30.08R WCI  30
$$

COZ006>008-011-201400-
...WEST CENTRAL VALLEYS...

CITY           SKY/WX    TMP DP  RH WIND       PRES   REMARKS
GRAND JUNCTION FAIR      48  37  65 E3        29.94R
MONTROSE       FAIR      49  36  61 S7        30.02R
EAGLE          MOCLDY    44  32  62 W3        30.07R
RIFLE          FAIR      44  36  73 S3        30.01R
DELTA          FAIR      52  34  51 NE7       29.99R
NUCLA          FAIR      55  27  33 CALM      30.05R
$$

COZ017>023-064>068-201400-
...SOUTHWEST COLORADO...

CITY           SKY/WX    TMP DP  RH WIND       PRES   REMARKS
DURANGO        FAIR      38  29  70 NE3       30.11R
CORTEZ         FAIR      43  30  60 NE6       30.05R
PAGOSA SPRINGS FAIR      42  22  46 NE3       30.16R THUNDER
TELLURIDE      FAIR      47  28  47 CALM      30.20R
WOLF CREEK PAS FAIR      32  18  55 SW16G24   30.36R WCI  21
$$

COZ009-010-012-014-032>034-037-058>063-201400-
...CENTRAL COLORADO...

CITY           SKY/WX    TMP DP  RH WIND       PRES   REMARKS
ASPEN          FAIR      42  32  67 S6        30.07R
BUENA VISTA    FAIR      53  26  34 NE3       30.07R
COPPER MTN     FAIR      41  27  56 W14G23    30.25R
BERTHOUD PASS  FAIR      32  27  80 W35G54    30.21F WCI  17
COTTONWOOD PAS FAIR      50  23  34 NW7       30.15R
GUNNISON       FAIR      39  25  57 VRB3      30.12R
KREMMLING      FAIR      41  34  75 CALM      30.09S
LEADVILLE      FAIR      40  22  48 CALM      30.14R
MONARCH PASS   FAIR      36  27  69 W39G47    30.37R
SALIDA         FAIR      55  25  30 S7        30.14R
SUNLIGHT       FAIR      36  28  75 SW14G22   30.22S
WILKERSON PASS FAIR      37  23  56 SW12G23   30.23R
$$

COZ069>075-201400-
...SAN LUIS VALLEY/SANGRE DE CRISTO MOUNTAINS...

CITY           SKY/WX    TMP DP  RH WIND       PRES   REMARKS
ALAMOSA        FAIR      47  23  38 S14       30.10R
DEL NORTE      FAIR      42  20  42 NW8       30.14R
LA VETA PASS   FAIR      43  18  36 S16G25    30.33R
SAGUACHE       FAIR      32  28  86 CALM      30.14R
$$

COZ035-036-038>040-201400-
...NORTHERN COLORADO FRONT RANGE...

CITY           SKY/WX    TMP DP  RH WIND       PRES   REMARKS
DENVER INTL AP FAIR      44  31  60 SE13      29.99R
DMNS CITY PARK   N/A     45  33  64 E14       29.99R
AURORA         PTCLDY    44  31  60 E17       30.00R
FRONT RANGE AP FAIR      45  32  61 SE13      30.01R
ERIE MUNI ARPT FAIR      39  32  76 N3        30.04R
BOULDER MUN AP FAIR      43  32  65 CALM      29.99R
CENTENNIAL     FAIR      42  32  67 S6        29.99R
BROOMFIELD     PTCLDY    46  32  57 S3        29.99R
FORT COLLINS   FAIR      44  33  65 SE6       29.99R
LONGMONT       CLOUDY    43  36  75 CALM      30.00R
$$

COZ041-046-047-076>085-087-088-201400-
...PIKES PEAK/PALMER DIVIDE AND SOUTHERN FOOTHILLS...

CITY           SKY/WX    TMP DP  RH WIND       PRES   REMARKS
COLO. SPRINGS  FAIR      42  30  62 SE8       30.07R
A. F. ACADEMY  FAIR      40  29  62 S7        30.06R
SCHRIEVER AFB  FAIR      37  29  72 MISG      30.08R
CHEYENNE MTN   NOT AVBL
ELLICOTT         N/A    N/A N/A N/A SW6       30.06R
FALCON         FAIR      38  28  67 SW9       30.08S
FORT CARSON    FAIR      42  30  62 S12       30.05R
LIMON          FAIR      36  30  79 CALM      30.04R
MONUMENT HILL  FAIR      43  30  61 S22G28    30.02R
CANON CITY     CLEAR     45  32  61 N6        30.07R
WALSENBURG     FAIR      39  32  75 CALM      30.08R
TRINIDAD       FAIR      39  35  86 W5        30.08R
$$

COZ042>045-048>051-090-091-201400-
...NORTHEAST COLORADO...

CITY           SKY/WX    TMP DP  RH WIND       PRES   REMARKS
GREELEY ARPT   FAIR      45  34  65 SW6       30.00R
AKRON          FAIR      43  27  53 CALM      29.99R
BURLINGTON     FAIR      38  30  73 CALM      29.99R
WRAY           FAIR      37  32  81 W6        29.98R
YUMA           FAIR      36  30  80 CALM      29.99R
STERLING       FAIR      37  36  93 CALM      29.96S
HOLYOKE        NOT AVBL
FORT MORGAN    FAIR      43  31  61 CALM      30.00R
$$

COZ086-089-092>099-201400-
...SOUTHEAST COLORADO...

CITY           SKY/WX    TMP DP  RH WIND       PRES   REMARKS
PUEBLO         FAIR      41  28  60 CALM      30.05R
LA JUNTA       FAIR      44  33  65 W9        30.03R
LAMAR          FAIR      42  31  64 W6        29.99R
SPRINGFIELD    NOT AVBL
$$




USA.gov is the U.S. government's official web portal to all federal, state and local government web resources and services.